Madison, MN

5:36 PM CST on February 24, 2017 (GMT -0600)
Madison-Lac Qui Parle County

Weather History for KDXX - November, 2012

Change the Weather History Date:

Wednesday, November 7, 2012

  Actual Average (KAQP) Record (KAQP)
Temperature  
Mean Temperature 38 °F -  
Max Temperature 50 °F 41 °F 71 °F (1999)
Min Temperature 26 °F 24 °F 5 °F (2003)
Degree Days  
Heating Degree Days 27    
Moisture  
Dew Point 30 °F    
Average Humidity 74    
Maximum Humidity 93    
Minimum Humidity 47    
Precipitation  
Precipitation 0.00 in - - ()
Sea Level Pressure  
Sea Level Pressure 30.03 in    
Wind  
Wind Speed 7 mph (SSW)    
Max Wind Speed 16 mph    
Max Gust Speed 20 mph    
Visibility 10 miles    
Events      
Averages and records for this station are not official NWS values.
T = Trace of Precipitation, MM = Missing Value Source: NWS Daily Summary

Daily Weather History Graph

Daily Weather History Graph

Search for Another Location

Airport or City:

Trip Planner

Search our weather history database for the weather conditions in past years. The results will help you decide how hot, cold, wet, or windy it might be!

Date:

Astronomy

Nov. 07, 2012 Rise Set
Actual Time 7:12 AM CST 5:04 PM CST
Civil Twilight 6:40 AM CST 5:35 PM CST
Nautical Twilight 6:05 AM CST 6:10 PM CST
Astronomical Twilight 5:31 AM CST 6:44 PM CST
Moon No Moon Rise 1:30 PM CST (11/7)
Length of Visible Light 10h 54m
Length of Day
9h 52m
Last Quarter, 43% of the Moon is Illuminated
Nov 7
Last Quarter
Nov 13
New
Nov 20
First Quarter
Nov 28
Full
Dec 6
Last Quarter

Hourly Weather History & Observations

Time (CST) Temp. Windchill Dew Point Humidity Pressure Visibility Wind Dir Wind Speed Gust Speed Precip Events Conditions
12:13 AM 39.2 °F 34.2 °F 32.0 °F 75% 30.05 in 10.0 mi NNW 6.9 mph - N/A   Mostly Cloudy
12:33 AM 37.4 °F 33.8 °F 32.0 °F 81% 30.05 in 10.0 mi NNW 4.6 mph - N/A   Scattered Clouds
12:54 AM 35.6 °F 31.7 °F 30.2 °F 81% 30.05 in 10.0 mi WNW 4.6 mph - N/A   Clear
1:13 AM 33.8 °F 27.7 °F 30.2 °F 87% 30.06 in 10.0 mi West 6.9 mph - N/A   Mostly Cloudy
1:33 AM 33.8 °F 28.6 °F 30.2 °F 87% 30.06 in 10.0 mi West 5.8 mph - N/A   Overcast
1:54 AM 33.8 °F 27.7 °F 30.2 °F 87% 30.07 in 10.0 mi West 6.9 mph - N/A   Overcast
2:14 AM 33.8 °F 27.7 °F 30.2 °F 87% 30.07 in 10.0 mi WNW 6.9 mph - N/A   Overcast
2:54 AM 32.0 °F 24.8 °F 28.4 °F 87% 30.08 in 10.0 mi WNW 8.1 mph - N/A   Scattered Clouds
3:14 AM 30.2 °F 22.6 °F 26.6 °F 86% 30.08 in 10.0 mi WNW 8.1 mph - N/A   Clear
3:33 AM 28.4 °F 21.2 °F 26.6 °F 93% 30.08 in 10.0 mi WNW 6.9 mph - N/A   Clear
3:54 AM 30.2 °F 22.6 °F 26.6 °F 86% 30.08 in 10.0 mi WNW 8.1 mph - N/A   Clear
4:14 AM 28.4 °F 20.4 °F 26.6 °F 93% 30.08 in 10.0 mi WNW 8.1 mph - N/A   Clear
4:33 AM 28.4 °F 21.2 °F 26.6 °F 93% 30.09 in 10.0 mi WNW 6.9 mph - N/A   Clear
4:54 AM 28.4 °F 21.2 °F 24.8 °F 86% 30.09 in 10.0 mi WNW 6.9 mph - N/A   Clear
5:14 AM 28.4 °F 20.4 °F 26.6 °F 93% 30.09 in 10.0 mi WNW 8.1 mph - N/A   Clear
5:33 AM 26.6 °F 17.5 °F 24.8 °F 93% 30.10 in 10.0 mi West 9.2 mph - N/A   Clear
5:54 AM 26.6 °F 18.2 °F 24.8 °F 93% 30.11 in 10.0 mi West 8.1 mph - N/A   Clear
6:13 AM 26.6 °F 20.0 °F 24.8 °F 93% 30.10 in 10.0 mi West 5.8 mph - N/A   Clear
6:34 AM 26.6 °F 21.2 °F 23.0 °F 86% 30.10 in 10.0 mi West 4.6 mph - N/A   Clear
6:54 AM 26.6 °F 21.2 °F 24.8 °F 93% 30.10 in 10.0 mi West 4.6 mph - N/A   Clear
7:13 AM 26.6 °F 20.0 °F 24.8 °F 93% 30.10 in 10.0 mi West 5.8 mph - N/A   Clear
7:34 AM 26.6 °F 20.0 °F 24.8 °F 93% 30.11 in 10.0 mi West 5.8 mph - N/A   Clear
7:54 AM 28.4 °F 23.3 °F 24.8 °F 86% 30.11 in 10.0 mi West 4.6 mph - N/A   Clear
8:13 AM 28.4 °F 23.3 °F 26.6 °F 93% 30.10 in 10.0 mi West 4.6 mph - N/A   Clear
8:34 AM 30.2 °F - 28.4 °F 93% 30.10 in 10.0 mi Calm Calm - N/A   Clear
8:54 AM 33.8 °F - 30.2 °F 87% 30.10 in 10.0 mi Calm Calm - N/A   Clear
9:13 AM 35.6 °F 32.8 °F 30.2 °F 81% 30.10 in 10.0 mi West 3.5 mph - N/A   Clear
9:34 AM 37.4 °F - 30.2 °F 75% 30.10 in 10.0 mi Calm Calm - N/A   Clear
9:53 AM 37.4 °F - 30.2 °F 75% 30.10 in 10.0 mi Calm Calm - N/A   Clear
10:13 AM 39.2 °F - 32.0 °F 75% 30.10 in 10.0 mi Calm Calm - N/A   Clear
10:34 AM 41.0 °F - 32.0 °F 70% 30.10 in 10.0 mi Calm Calm - N/A   Clear
10:53 AM 42.8 °F 40.1 °F 32.0 °F 66% 30.11 in 10.0 mi SSW 4.6 mph - N/A   Clear
11:14 AM 42.8 °F 41.1 °F 32.0 °F 66% 30.10 in 10.0 mi WSW 3.5 mph - N/A   Clear
11:34 AM 44.6 °F 41.4 °F 33.8 °F 66% 30.09 in 10.0 mi SSW 5.8 mph - N/A   Clear
11:53 AM 44.6 °F 40.7 °F 32.0 °F 61% 30.08 in 10.0 mi SW 6.9 mph - N/A   Clear
12:14 PM 46.4 °F 43.5 °F 32.0 °F 57% 30.06 in 10.0 mi SW 5.8 mph - N/A   Clear
12:34 PM 48.2 °F - 33.8 °F 58% 30.05 in 10.0 mi South 6.9 mph - N/A   Clear
12:53 PM 48.2 °F - 33.8 °F 58% 30.04 in 10.0 mi South 5.8 mph - N/A   Clear
1:14 PM 48.2 °F - 32.0 °F 54% 30.02 in 10.0 mi SSE 11.5 mph - N/A   Clear
1:34 PM 50.0 °F - 30.2 °F 47% 30.02 in 10.0 mi South 10.4 mph - N/A   Clear
1:53 PM 50.0 °F - 30.2 °F 47% 30.01 in 10.0 mi SSW 10.4 mph 16.1 mph N/A   Clear
2:14 PM 50.0 °F - 30.2 °F 47% 30.01 in 10.0 mi South 10.4 mph - N/A   Clear
2:34 PM 50.0 °F - 30.2 °F 47% 30.00 in 10.0 mi South 10.4 mph - N/A   Clear
2:53 PM 50.0 °F - 32.0 °F 50% 29.99 in 10.0 mi South 10.4 mph - N/A   Clear
3:14 PM 50.0 °F - 32.0 °F 50% 29.99 in 10.0 mi South 11.5 mph - N/A   Clear
3:38 PM 50.0 °F - 32.0 °F 50% 29.98 in 10.0 mi South 11.5 mph - N/A   Clear
3:54 PM 48.2 °F - 32.0 °F 54% 29.98 in 10.0 mi South 10.4 mph - N/A   Clear
4:13 PM 48.2 °F - 30.2 °F 50% 29.98 in 10.0 mi South 11.5 mph - N/A   Clear
4:33 PM 48.2 °F - 32.0 °F 54% 29.97 in 10.0 mi South 9.2 mph - N/A   Clear
5:14 PM 44.6 °F 39.7 °F 32.0 °F 61% 29.96 in 10.0 mi SSE 9.2 mph - N/A   Clear
5:33 PM 44.6 °F 39.2 °F 32.0 °F 61% 29.96 in 10.0 mi SSE 10.4 mph - N/A   Clear
5:54 PM 42.8 °F 37.0 °F 32.0 °F 66% 29.96 in 10.0 mi SSE 10.4 mph - N/A   Clear
6:14 PM 42.8 °F 37.0 °F 32.0 °F 66% 29.96 in 10.0 mi SSE 10.4 mph - N/A   Clear
6:33 PM 42.8 °F 36.2 °F 32.0 °F 66% 29.96 in 10.0 mi SSE 12.7 mph - N/A   Clear
6:54 PM 42.8 °F 36.2 °F 32.0 °F 66% 29.95 in 10.0 mi SSE 12.7 mph - N/A   Clear
7:14 PM 41.0 °F 33.9 °F 32.0 °F 70% 29.95 in 10.0 mi SSE 12.7 mph - N/A   Clear
7:33 PM 41.0 °F 33.5 °F 32.0 °F 70% 29.94 in 10.0 mi SSE 13.8 mph - N/A   Clear
7:54 PM 41.0 °F 33.9 °F 32.0 °F 70% 29.94 in 10.0 mi SE 12.7 mph - N/A   Clear
8:14 PM 41.0 °F 33.1 °F 32.0 °F 70% 29.94 in 10.0 mi SSE 15.0 mph - N/A   Clear
8:33 PM 39.2 °F 31.2 °F 32.0 °F 75% 29.94 in 10.0 mi SSE 13.8 mph - N/A   Clear
8:54 PM 39.2 °F 31.6 °F 32.0 °F 75% 29.95 in 10.0 mi SSE 12.7 mph - N/A   Clear
9:14 PM 39.2 °F 31.6 °F 32.0 °F 75% 29.95 in 10.0 mi SSE 12.7 mph - N/A   Clear
9:33 PM 37.4 °F 29.3 °F 32.0 °F 81% 29.95 in 10.0 mi SSE 12.7 mph 19.6 mph N/A   Clear
9:54 PM 37.4 °F 28.9 °F 32.0 °F 81% 29.93 in 10.0 mi SSE 13.8 mph - N/A   Clear
10:14 PM 37.4 °F 28.5 °F 32.0 °F 81% 29.92 in 10.0 mi SE 15.0 mph - N/A   Clear
10:33 PM 37.4 °F 28.5 °F 32.0 °F 81% 29.92 in 10.0 mi SSE 15.0 mph - N/A   Clear
10:54 PM 37.4 °F 28.9 °F 30.2 °F 75% 29.92 in 10.0 mi SSE 13.8 mph - N/A   Clear
11:14 PM 37.4 °F 29.3 °F 30.2 °F 75% 29.91 in 10.0 mi SSE 12.7 mph - N/A   Clear
11:33 PM 37.4 °F 28.2 °F 30.2 °F 75% 29.89 in 10.0 mi SSE 16.1 mph - N/A   Clear
11:54 PM 37.4 °F 28.5 °F 30.2 °F 75% 29.89 in 10.0 mi SE 15.0 mph - N/A   Clear